EN

Hourly Weather Kyzylorda

Today, 1 August, Sunday

Time Temperature Precipitation Wind Pressure Humidity
00:00 +30°C° 0 mm 6 mps 746 mmHg 18%
01:00 +29°C° 0 mm 6 mps 745 mmHg 18%
02:00 +29°C° 0 mm 5 mps 745 mmHg 19%
03:00 +28°C° 0 mm 5 mps 745 mmHg 20%
04:00 +27°C° 0 mm 5 mps 745 mmHg 21%
05:00 +29°C° 0 mm 5 mps 746 mmHg 21%
06:00 +30°C° 0 mm 6 mps 746 mmHg 21%
07:00 +32°C° 0 mm 6 mps 746 mmHg 20%
08:00 +34°C° 0 mm 7 mps 746 mmHg 18%
09:00 +35°C° 0 mm 8 mps 746 mmHg 16%
10:00 +38°C° 0 mm 8 mps 746 mmHg 14%
11:00 +39°C° 0 mm 9 mps 746 mmHg 13%
12:00 +40°C° 0 mm 9 mps 745 mmHg 12%
13:00 +42°C° 0 mm 9 mps 745 mmHg 11%
14:00 +42°C° 0 mm 9 mps 744 mmHg 11%
15:00 +42°C° 0 mm 9 mps 744 mmHg 11%
16:00 +42°C° 0 mm 9 mps 744 mmHg 11%
17:00 +40°C° 0 mm 8 mps 744 mmHg 12%
18:00 +39°C° 0 mm 6 mps 744 mmHg 13%
19:00 +36°C° 0 mm 5 mps 744 mmHg 14%
20:00 +35°C° 0 mm 5 mps 744 mmHg 15%
21:00 +35°C° 0 mm 5 mps 744 mmHg 16%
22:00 +34°C° 0 mm 4 mps 744 mmHg 16%
23:00 +33°C° 0 mm 4 mps 744 mmHg 17%

Tomorrow, 2 August, Monday

Time Temperature Precipitation Wind Pressure Humidity
00:00 +33°C° 0 mm 4 mps 743 mmHg 17%
01:00 +32°C° 0 mm 4 mps 743 mmHg 18%
02:00 +30°C° 0 mm 4 mps 743 mmHg 19%
03:00 +30°C° 0 mm 4 mps 744 mmHg 20%
04:00 +29°C° 0 mm 4 mps 744 mmHg 20%
05:00 +32°C° 0 mm 5 mps 744 mmHg 19%
06:00 +33°C° 0 mm 5 mps 744 mmHg 18%
07:00 +35°C° 0 mm 5 mps 745 mmHg 17%
08:00 +38°C° 0 mm 6 mps 744 mmHg 15%
09:00 +40°C° 0 mm 6 mps 744 mmHg 13%
10:00 +42°C° 0 mm 6 mps 744 mmHg 12%
11:00 +42°C° 0 mm 6 mps 744 mmHg 12%
12:00 +44°C° 0 mm 6 mps 744 mmHg 12%
13:00 +44°C° 0 mm 7 mps 743 mmHg 12%
14:00 +44°C° 0 mm 7 mps 743 mmHg 12%
15:00 +44°C° 0 mm 7 mps 743 mmHg 13%
16:00 +44°C° 0 mm 8 mps 742 mmHg 13%
17:00 +43°C° 0 mm 8 mps 743 mmHg 15%
18:00 +40°C° 0 mm 8 mps 743 mmHg 17%
19:00 +39°C° 0 mm 7 mps 743 mmHg 19%
20:00 +38°C° 0 mm 7 mps 743 mmHg 19%
21:00 +36°C° 0 mm 7 mps 743 mmHg 20%
22:00 +36°C° 0 mm 6 mps 743 mmHg 21%
23:00 +35°C° 0 mm 5 mps 743 mmHg 21%

Day after tomorrow, 3 August, Tuesday

Time Temperature Precipitation Wind Pressure Humidity
00:00 +35°C° 0 mm 5 mps 743 mmHg 22%
01:00 +34°C° 0 mm 4 mps 743 mmHg 23%
02:00 +34°C° 0 mm 4 mps 744 mmHg 25%
03:00 +33°C° 0 mm 4 mps 744 mmHg 26%
04:00 +32°C° 0 mm 4 mps 744 mmHg 28%
05:00 +33°C° 0 mm 5 mps 744 mmHg 26%
06:00 +34°C° 0 mm 6 mps 745 mmHg 25%
07:00 +35°C° 0 mm 6 mps 745 mmHg 23%
08:00 +38°C° 0 mm 7 mps 745 mmHg 21%
09:00 +40°C° 0 mm 8 mps 745 mmHg 18%
10:00 +41°C° 0 mm 8 mps 745 mmHg 15%
11:00 +43°C° 0 mm 8 mps 745 mmHg 15%
12:00 +43°C° 0 mm 8 mps 745 mmHg 14%
13:00 +44°C° 0 mm 8 mps 744 mmHg 14%
14:00 +43°C° 0 mm 8 mps 744 mmHg 14%
15:00 +43°C° 0 mm 8 mps 744 mmHg 14%
16:00 +43°C° 0 mm 8 mps 744 mmHg 14%
17:00 +41°C° 0 mm 7 mps 744 mmHg 14%
18:00 +40°C° 0 mm 6 mps 744 mmHg 13%
19:00 +37°C° 0 mm 5 mps 744 mmHg 13%
20:00 +36°C° 0 mm 5 mps 744 mmHg 15%
21:00 +35°C° 0 mm 5 mps 744 mmHg 17%
22:00 +34°C° 0 mm 5 mps 745 mmHg 18%
23:00 +33°C° 0 mm 5 mps 745 mmHg 20%

4 August, Wednesday

Time Temperature Precipitation Wind Pressure Humidity
00:00 +33°C° 0 mm 4 mps 745 mmHg 21%
01:00 +32°C° 0 mm 4 mps 745 mmHg 23%
02:00 +32°C° 0 mm 4 mps 745 mmHg 24%
03:00 +30°C° 0 mm 4 mps 745 mmHg 25%
04:00 +29°C° 0 mm 4 mps 745 mmHg 27%
05:00 +32°C° 0 mm 5 mps 745 mmHg 25%
06:00 +33°C° 0 mm 6 mps 746 mmHg 23%
07:00 +34°C° 0 mm 6 mps 746 mmHg 22%
08:00 +36°C° 0 mm 7 mps 746 mmHg 20%
09:00 +38°C° 0 mm 8 mps 746 mmHg 18%
10:00 +40°C° 0 mm 9 mps 746 mmHg 17%
11:00 +40°C° 0 mm 9 mps 746 mmHg 16%
12:00 +42°C° 0 mm 9 mps 746 mmHg 14%
13:00 +43°C° 0 mm 9 mps 745 mmHg 13%
14:00 +43°C° 0 mm 9 mps 745 mmHg 13%
15:00 +43°C° 0 mm 8 mps 745 mmHg 12%
16:00 +43°C° 0 mm 8 mps 745 mmHg 12%
17:00 +40°C° 0 mm 7 mps 745 mmHg 13%
18:00 +39°C° 0 mm 6 mps 745 mmHg 15%
19:00 +37°C° 0 mm 5 mps 745 mmHg 16%
20:00 +36°C° 0 mm 5 mps 745 mmHg 17%
21:00 +34°C° 0 mm 5 mps 745 mmHg 18%
22:00 +33°C° 0 mm 5 mps 745 mmHg 18%
23:00 +33°C° 0 mm 5 mps 745 mmHg 20%

5 August, Thursday

Time Temperature Precipitation Wind Pressure Humidity
00:00 +32°C° 0 mm 5 mps 745 mmHg 21%
01:00 +30°C° 0 mm 5 mps 745 mmHg 23%
02:00 +30°C° 0 mm 5 mps 745 mmHg 24%
03:00 +29°C° 0 mm 5 mps 745 mmHg 26%
04:00 +29°C° 0 mm 5 mps 745 mmHg 27%
05:00 +30°C° 0 mm 6 mps 745 mmHg 26%
06:00 +32°C° 0 mm 7 mps 745 mmHg 24%
07:00 +33°C° 0 mm 8 mps 746 mmHg 23%
08:00 +35°C° 0 mm 8 mps 746 mmHg 21%
09:00 +38°C° 0 mm 8 mps 746 mmHg 18%
10:00 +39°C° 0 mm 9 mps 745 mmHg 16%
11:00 +40°C° 0 mm 9 mps 745 mmHg 15%
12:00 +42°C° 0 mm 9 mps 745 mmHg 14%
13:00 +43°C° 0 mm 9 mps 744 mmHg 13%
14:00 +43°C° 0 mm 9 mps 744 mmHg 14%
15:00 +43°C° 0 mm 8 mps 744 mmHg 14%
16:00 +43°C° 0 mm 8 mps 744 mmHg 14%
17:00 +41°C° 0 mm 7 mps 744 mmHg 16%
18:00 +39°C° 0 mm 6 mps 744 mmHg 18%
19:00 +37°C° 0 mm 5 mps 744 mmHg 19%
20:00 +36°C° 0 mm 5 mps 744 mmHg 20%
21:00 +35°C° 0 mm 4 mps 744 mmHg 21%
22:00 +35°C° 0 mm 4 mps 744 mmHg 23%
23:00 +34°C° 0 mm 4 mps 744 mmHg 24%

6 August, Friday

Time Temperature Precipitation Wind Pressure Humidity
00:00 +33°C° 0 mm 4 mps 743 mmHg 25%
01:00 +33°C° 0 mm 4 mps 743 mmHg 27%
02:00 +32°C° 0 mm 4 mps 743 mmHg 28%
03:00 +30°C° 0 mm 4 mps 743 mmHg 28%
04:00 +30°C° 0 mm 4 mps 743 mmHg 29%
05:00 +32°C° 0 mm 4 mps 744 mmHg 26%
06:00 +33°C° 0 mm 5 mps 744 mmHg 23%
07:00 +35°C° 0 mm 5 mps 744 mmHg 20%
08:00 +36°C° 0 mm 6 mps 744 mmHg 18%
09:00 +39°C° 0 mm 7 mps 744 mmHg 16%
10:00 +41°C° 0 mm 8 mps 744 mmHg 15%
11:00 +41°C° 0 mm 7 mps 743 mmHg 14%
12:00 +43°C° 0 mm 7 mps 743 mmHg 13%
13:00 +44°C° 0 mm 6 mps 743 mmHg 12%
14:00 +44°C° 0 mm 6 mps 742 mmHg 12%
15:00 +44°C° 0 mm 6 mps 742 mmHg 12%
16:00 +44°C° 0 mm 6 mps 742 mmHg 11%
17:00 +41°C° 0 mm 5 mps 742 mmHg 13%
18:00 +40°C° 0 mm 4 mps 742 mmHg 14%
19:00 +37°C° 0 mm 3 mps 742 mmHg 15%
20:00 +37°C° 0 mm 3 mps 742 mmHg 15%
21:00 +36°C° 0 mm 3 mps 742 mmHg 16%
22:00 +35°C° 0 mm 3 mps 742 mmHg 16%
23:00 +34°C° 0 mm 3 mps 742 mmHg 17%
Show more